Regional Weather Roundup
Issued by NWS Green Bay, WI

Home | Current Version | Previous Version | Graphics & Text | Print | Product List | Glossary Off
Versions: 1 2 3 4 5 6 7 8 9 10 11 12 13 14 15 16 17 18 19 20 21 22 23 24 25 26 27 28 29 30 31 32 33 34 35 36 37 38 39 40 41 42 43 44 45 46 47 48 49 50

000
ASUS43 KGRB 232300
RWRGRB

NORTH-CENTRAL AND NORTHEAST WISCONSIN REGIONAL WEATHER ROUNDUP
NATIONAL WEATHER SERVICE GREEN BAY WI
600 PM CDT WED MAY 23 2018

WIZ005-009-010>012-018-019-240000-
NORTH CENTRAL WISCONSIN

CITY           SKY/WX    TMP DP  RH WIND       PRES   REMARKS
IRONWOOD       FAIR      78  55  44 NE6       30.10F
MANITOWISH WTR FAIR      78  54  43 SW5       30.11F
ARBOR VITAE    FAIR      80  53  38 SW6       30.11F
EAGLE RIVER    FAIR      80  45  28 W8        30.11F
LAND O LAKES   FAIR      82  47  28 S3        30.13F
RHINELANDER    NOT AVBL
PHILLIPS       NOT AVBL
ANTIGO         FAIR      78  55  46 W6        30.14F
TOMAHAWK       FAIR      77  56  47 CALM      30.13S
MERRILL        FAIR      79  60  51 SW6       30.12F
$$

WIZ013-073-240000-
NORTHEAST WISCONSIN

CITY           SKY/WX    TMP DP  RH WIND       PRES   REMARKS
IRON MOUNTAIN  FAIR      83  49  30 S9        30.09S
MARINETTE      FAIR      74  59  59 SE10      30.13S
$$

WIZ017-030-035>037-045-240000-
CENTRAL WISCONSIN

CITY           SKY/WX    TMP DP  RH WIND       PRES   REMARKS
MEDFORD        NOT AVBL
WAUSAU         FAIR      77  58  51 SW8       30.11F
MOSINEE        PTSUNNY   75  61  60 SW3       30.14F
MARSHFIELD     FAIR      77  61  57 S8        30.12F
WISC RAPIDS    FAIR      78  60  53 S3        30.13F
STEVENS POINT  NOT AVBL
WAUPACA        FAIR      79  59  49 S7        30.13S
SHAWANO        FAIR      80  56  43 S7        30.11F
CLINTONVILLE   FAIR      80  56  43 S8        30.12S
WAUTOMA        FAIR      79  60  52 CALM      30.13F
$$

WIZ038-039-048-051-240000-
FOX VALLEY

CITY           SKY/WX    TMP DP  RH WIND       PRES   REMARKS
NWS GREEN BAY  FAIR      78  58  49 S8        30.13S
APPLETON       PTSUNNY   75  55  50 S6        30.13S
OSHKOSH        FAIR      77  62  59 S5        30.13F
FOND DU LAC    FAIR      78  60  53 S6        30.13F
$$

WIZ022-050-052-240000-
EAST CENTRAL WISCONSIN

CITY           SKY/WX    TMP DP  RH WIND       PRES   REMARKS
EPHRAIM        FAIR      70  56  60 SE7       30.13F
WASHINGTON ISL FAIR      63  56  76 S6        30.12F
STURGEON BAY   FAIR      72  57  59 S9        30.14F
MANITOWOC      FAIR      68  57  68 S7        30.15S
SHEBOYGAN      FAIR      71  55  56 S6        30.15S
$$

LMZ563-521-522-541>543-240000-
LAKESHORE

STATION/POSITION TIME  TEMP    WIND        PRES    VSBY  WAVE
                       AIR SEA DIR/SP/G                  HT/PER
                 (UTC) (F)     (DEG/KT/KT) (MB)    (MI)  (FT/S)
SHEBOYGAN LKSHOR 2200   60     180/ 13/ 14 1021.0S
KEWAUNEE LKSHORE 2230   53     100/  4/  5 1020.2S
NORTHPORT PIER   2240   63     150/  4/  6 1020.0F
N MID LAKE BUOY  2240   39 38  190/  8/ 10 1020.9F
SISTER BAY LKSHO 2227   72     170/ 10/ 12   N/A
MENOMINEE LKSHOR 2230   64     140/ 12/ 13 1019.7F
$$



USA.gov is the U.S. government's official web portal to all federal, state and local government web resources and services.